Theta_e
317 318 318 315 317 318 317 317 318 317 315 315 313 314 311 313 314 313 311 312 311 311 311 312 314 321 317 320 320 319 325 327
317 316 315 317 316 318 318 315 313 314 313 313 313 311 310 311 311 311 308 308 308 307 308 309 310 312 312 315 319 318 316 320
318 317 319 316 316 318 315 313 310 311 311 311 311 311 308 310 309 309 307 306 306 306 305 307 307 308 310 310 317 316 315 315
317 318 318 318 318 315 314 311 310 310 309 308 308 309 308 308 308 308 307 305 305 305 305 305 305 305 307 308 312 315 313 314
317 317 318 317 317 316 314 311 309 309 308 308 307 308 308 308 307 308 308 306 305 304 304 305 305 305 306 309 310 312 313 314
317 320 318 315 313 311 310 312 309 308 307 307 306 307 307 306 306 306 308 308 309 306 305 306 306 305 306 306 307 309 309 309
319 321 317 315 313 311 309 308 308 308 308 308 307 306 306 306 305 305 307 309 311 307 306 307 307 306 306 305 306 305 305 308
321 319 317 315 313 311 309 308 308 308 307 306 307 307 306 306 305 306 308 309 311 308 307 307 307 306 305 305 303 305 305 305
321 318 317 316 315 311 309 306 308 307 306 305 305 305 305 305 305 307 307 308 310 309 308 307 307 305 305 305 304 304 304 304
318 318 317 316 314 310 309 307 307 306 305 305 305 305 305 304 305 306 307 309 310 310 307 306 306 305 305 304 303 302 302 304
316 317 316 315 313 312 309 307 307 307 306 306 306 305 304 303 305 305 307 308 310 309 309 307 306 305 304 304 303 302 301 303
317 316 315 315 314 312 309 308 306 307 306 305 302 302 301 302 303 304 305 307 308 309 309 308 306 305 304 304 307 304 302 301
315 316 316 313 312 311 309 307 306 306 306 305 304 303 303 304 304 303 304 305 307 308 308 306 306 306 306 305 305 304 303 303
315 315 312 310 311 311 308 306 305 304 305 305 305 304 304 303 303 303 304 303 305 306 307 306 306 306 309 308 308 308 305 305
312 313 309 307 310 309 308 306 303 304 304 305 306 307 306 304 303 303 303 303 303 305 305 305 305 307 311 311 311 311 306 304
309 311 305 307 309 307 306 304 303 304 304 306 310 307 306 306 304 304 303 302 304 305 306 306 306 308 309 310 309 312 309 312
309 306 305 306 308 304 304 303 303 303 303 308 305 307 306 305 305 304 304 304 306 308 306 306 306 307 307 306 308 310 311 312
306 305 306 307 304 303 303 303 303 303 304 308 307 307 307 306 305 305 305 305 305 305 305 306 306 307 307 305 307 307 310 308
307 306 307 306 304 304 303 303 303 303 304 307 306 306 306 307 306 306 306 304 304 304 306 305 306 308 307 308 307 309 310 310
307 306 305 304 304 302 303 303 303 303 304 308 308 306 305 306 307 309 307 309 308 304 306 304 306 308 310 310 311 311 308 307
Wind_Speed
7 6 8 5 4 5 7 6 6 7 6 4 3 3 4 3 6 6 5 4 5 4 4 4 4 10 4 6 6 4 6 4
9 9 6 4 5 5 5 6 7 6 4 4 4 3 3 3 4 6 5 4 5 4 3 4 4 4 5 4 3 5 6 6
6 7 7 7 6 5 5 6 6 6 6 4 4 3 2 3 4 4 4 4 4 4 4 3 4 4 4 5 4 4 5 6
6 6 7 5 8 6 5 7 6 6 5 6 5 4 3 3 2 3 5 3 3 4 4 5 4 4 4 4 4 4 4 4
10 8 6 7 6 5 4 3 3 5 5 5 4 3 3 2 3 4 4 4 4 4 4 4 5 4 6 4 5 4 4 4
6 6 8 7 7 6 3 2 3 6 5 3 3 4 3 2 2 3 4 5 3 4 4 4 4 4 4 3 4 4 4 4
3 5 9 7 7 6 4 2 6 4 4 4 4 4 4 3 2 3 5 5 5 3 4 5 5 4 4 3 2 2 3 3
5 6 7 6 5 3 2 1 3 3 3 3 3 3 3 3 3 4 6 5 6 4 4 5 4 4 4 3 3 3 4 3
6 5 6 5 4 4 0 1 2 3 3 3 2 3 3 3 3 6 6 5 6 5 4 5 5 4 5 4 3 3 3 1
6 4 5 5 3 2 2 2 2 2 1 2 1 2 3 3 4 5 5 6 6 5 5 5 5 4 5 4 3 2 2 2
4 5 5 5 5 5 5 3 3 3 4 3 3 2 3 3 4 4 5 6 6 6 6 5 6 3 4 5 4 4 2 3
5 9 6 5 6 4 5 2 4 4 4 2 2 2 2 3 3 3 5 6 7 6 6 6 6 4 5 4 3 3 3 4
8 8 9 6 6 7 4 3 5 6 4 4 3 3 3 3 3 5 5 6 6 6 6 6 6 4 5 5 4 4 3 3
6 4 0 3 3 4 3 4 5 6 5 6 6 6 5 4 4 4 4 4 5 6 6 5 6 5 5 5 4 4 3 4
7 8 6 6 4 5 5 6 6 6 6 7 6 6 5 5 5 4 6 4 3 6 6 6 5 6 5 5 4 4 3 2
5 9 7 6 5 7 6 5 7 7 6 7 5 4 3 3 4 4 4 3 4 5 6 6 7 7 6 4 3 3 2 3
9 4 9 7 8 8 8 7 7 6 7 6 5 4 4 5 6 4 4 5 4 5 6 6 7 7 6 5 3 5 4 4
7 9 3 6 6 6 7 6 6 5 7 5 3 5 4 4 3 6 5 5 4 5 6 6 6 6 6 6 4 4 4 3
6 4 5 4 5 6 6 6 6 7 6 4 4 5 3 3 4 6 5 4 4 5 5 5 5 6 6 5 5 4 5 4
4 6 6 6 6 5 7 7 6 6 6 5 5 5 3 5 5 6 6 5 4 5 4 4 5 5 5 6 5 5 5 5
Wind_Direction
124 119 122 138 100 51 43 48 39 31 11 8 10 11 17 25 35 28 20 17 10 12 6 359 355 356 356 343 349 355 323 315
125 121 128 120 80 77 56 45 40 22 5 359 337 14 30 33 45 36 22 9 5 357 352 347 347 336 336 323 343 337 346 298
109 116 119 144 134 93 66 47 30 14 20 348 348 1 51 72 37 28 33 9 1 343 338 344 337 331 333 323 329 332 332 315
128 143 162 137 113 101 67 44 25 22 25 7 360 18 73 66 36 1 17 4 341 344 335 330 330 325 313 312 316 311 298 292
166 173 126 107 106 116 98 101 63 46 25 8 16 13 27 25 2 345 342 332 315 323 312 323 309 312 315 324 321 319 317 311
175 148 121 109 125 138 112 81 60 40 15 4 356 5 359 327 315 334 319 313 334 325 326 319 309 313 311 315 303 307 281 286
211 131 129 149 161 162 145 71 59 23 347 1 6 358 355 309 323 325 319 327 331 333 311 300 319 322 323 310 284 234 269 291
178 146 131 156 179 142 156 126 62 18 347 356 349 2 355 330 320 310 326 318 325 330 317 321 327 325 319 322 290 269 240 258
156 137 150 163 194 166 3 52 351 31 359 355 353 334 324 329 326 321 314 308 313 323 316 321 320 318 302 305 291 297 304 310
139 175 185 199 169 164 195 254 327 360 360 304 299 305 293 272 307 304 301 316 305 296 309 308 306 311 312 299 268 301 280 253
158 233 220 218 206 202 216 242 301 317 323 339 341 330 317 331 319 314 321 311 303 307 318 314 306 307 301 292 276 222 247 285
182 221 228 226 227 204 212 257 291 289 303 302 266 257 283 260 265 271 301 320 319 323 318 311 311 314 304 293 272 237 214 256
217 228 224 201 207 210 168 242 282 284 282 251 256 265 239 264 285 324 334 321 327 316 311 316 322 309 309 333 318 274 229 247
263 276 296 224 201 138 166 245 267 276 280 276 244 256 282 316 321 329 319 310 305 312 318 325 307 307 318 306 296 293 284 263
187 201 208 210 184 174 205 228 274 279 275 286 274 263 279 284 294 299 306 316 310 309 323 320 310 301 299 304 315 324 330 299
218 213 206 205 192 207 216 231 263 266 295 287 302 297 267 275 269 278 279 271 280 292 309 310 311 309 313 326 330 331 335 348
223 214 210 193 197 207 210 231 250 277 286 292 314 311 282 265 277 289 276 276 276 302 313 309 315 317 328 350 0 329 334 344
232 222 177 203 199 206 217 231 252 267 279 275 282 288 284 281 292 288 290 288 278 319 314 317 322 333 345 2 355 340 351 0
223 212 227 205 213 209 227 241 255 265 271 273 269 282 294 293 295 280 271 286 309 315 314 318 327 329 343 348 358 16 40 347
220 230 215 214 220 216 226 237 247 247 263 259 252 275 286 277 275 284 282 269 274 281 292 306 318 337 350 346 349 28 36 17